OBJECT CN, 62693

Orbit data source: Space-Track

You're viewing an Uncataloged Satellite

Recently launched and/or uncataloged satellites may have evolving metadata. Metadata may include but not limited to: Owner, Maufacturer, Bus, Motor, and Mission.

OBJECT CN, 62693 is a satellite in SSO that was launched on Tue, 14 Jan 2025 UTC via an FALCON 9 launch vehicle from the Air Force Western Test Range (AFWTR). Unknown objects in Earth's orbit typically refer to objects detected orbiting the Earth but have not yet been identified or cataloged. These objects could be anything from previously untracked satellites, spent rocket stages, debris from satellite collisions, or even natural meteoroids temporarily captured by Earth's gravity.

Not visible in the next 10 days
Identifier
62693, 2025-009CN
Orbit
SSO
Country
Flag of TBDTBD
Related business
None
Manufacturer
Unknown
Mission
Operational Commercial Communications
Bus & Motor
Unknown
Mass
Unknown
Launch date (UTC)
2025-01-14 (1 year ago)
Launch vehicle
FALCON 9
Launch site
Air Force Western Test Range (AFWTR)
Object type
Unknown
Shape & HBR
Box + 2 Pan, 0.1 m
Radar Cross Section
0.014 m², Small (<0.1 m²)

Expand to show TLE details & history
Last TLE update: 18 hours ago

TLE from 18 hours ago
0 OBJECT CN
1 62693U 25009CN  26125.99287395  .02225938  53566-2  22725-2 0  9998
2 62693  97.3933 219.8957 0014769 269.6542  90.3050 16.11961825130836
Epoch: 2026-05-05T23:49Z
TLE epoch observation values (Epoch: 2026-05-05T23:49:44.309Z)
Latitude
-0.00003°
Longitude
-1.39867°
Altitude
244.748 km
Speed
7.76 km/s
True Right ascension
14h 39m 34s
True Declination
0° 00' 00"
Sunlit
Object was in full shadow at epoch
Visualization orbit readout
Latitude
Unknown
Longitude
Unknown
Altitude
Unknown
Speed
Unknown
Apparent Right ascension
Unknown
Apparent Declination
Unknown
Sunlit
N/A
Visualization observer readout
Local Sidereal Time
02:05:31
Azimuth
Unknown
Elevation
Unknown
Doppler factor
Unknown
Orbital elements
Apogee altitude
248.083 km
Perigee altitude
228.539 km
Semi-major axis
6,616.448 km
Eccentricity
0.00148
Inclination
97.3933°
RAAN
219.8957°
Arg. of periapsis
269.6542°
True anomaly
90.47424°
Mean anomaly
90.305°
Eccentric anomaly
90.38962°
Mean motion
4.03279 °/min
Orbital period
89.27 mins
BSTAR
0.0022725
Loading maneuver chart data...
Computing Atmospheric mass density...
Loading historical data...
Loading historical data...
Loading historical data...
Loading historical data...
Loading historical data...
Loading historical data...
Loading historical data...

Documentation

Showing up to 5 results
|